Regional Weather Roundup
Issued by NWS New Orleans/Baton Rouge, LA

Home | Current Version | Previous Version | Graphics & Text | Print | Product List | Glossary On
Versions: 1 2 3 4 5 6 7 8 9 10 11 12 13 14 15 16 17 18 19 20 21 22 23 24 25 26 27 28 29 30 31 32 33 34 35 36 37 38 39 40 41 42 43 44 45 46 47 48 49 50
519
ASUS44 KLIX 261305
RWRLIX
NEW ORLEANS REGIONAL WEATHER ROUNDUP
NATIONAL WEATHER SERVICE NEW ORLEANS LA
700 AM CST THU FEB 26 2015

NOTE: "FAIR" INDICATES FEW OR NO CLOUDS BELOW 12,000 FEET WITH NO
      SIGNIFICANT WEATHER AND/OR OBSTRUCTIONS TO VISIBILITY.
      SKY/WX - SKY CONDITION AND SIGNIFICANT WEATHER.
      TMP - AIR TEMPERATURE.     DP    - DEWPOINT TEMPERATURE.
      RH  - RELATIVE HUMIDITY.   PRES  - PRESSURE.
      HI  - HEAT INDEX.          WCI   - WIND CHILL INDEX.

*  THESE STATIONS ARE NOT NWS OR FAA STATIONS AND ARE NOT UNDER
   NWS QUALITY CONTROL.

LAZ038-040-048-061>063-065>067-069-261400-
SOUTHEAST LOUISIANA

CITY           SKY/WX    TMP DP  RH WIND       PRES   REMARKS
N.O. AUDUBON     N/A     40  38  91 MISG        N/A
N.O. INTL ARPT CLOUDY    38  33  82 N15       29.97R WCI  29
N.O. LAKEFRONT CLOUDY    41  34  76 N18       29.98R
SLIDELL        CLOUDY    37  33  85 N8        29.97R WCI  31
BATON ROUGE    CLOUDY    35  32  88 NW5       30.01R WCI  31
BOOTHVILLE     CLOUDY    41  37  86 N12G17    29.96R
BELLE CHASSE   CLOUDY    40  33  76 N9G17     29.96R WCI  34
BOGALUSA*        N/A     37  33  84 N7        29.99R WCI  32
GALLIANO*      CLOUDY    41  37  84 NW14      29.98R
NEW ROADS*     CLOUDY    36  32  87 N8        30.03R WCI  29
GONZALES*      CLOUDY    37  33  87 N8        30.00R WCI  30
HAMMOND*       CLOUDY    37  32  81 N8        30.01R WCI  31
HOUMA*         NOT AVBL
PORT FOURCHON* NOT AVBL

$$

MSZ070-080>082-261400-
SOUTHERN MISSISSIPPI

CITY           SKY/WX    TMP DP  RH WIND       PRES   REMARKS
MCCOMB         CLOUDY    34  31  88 N6        29.98R WCI  29
GULFPORT       CLOUDY    38  33  82 N14       29.95R WCI  30
BILOXI         CLOUDY    38  34  87 N18G25    29.94R WCI  28
PASCAGOULA     CLOUDY    37  34  89 N13G21    29.94R WCI  29
STENNIS ARPT*  CLOUDY    37  30  75 N12       29.97  WCI  30

$$

COASTAL OBSERVATIONS
LAKE AND NEARSHORE STATIONS

STATION/POSITION TIME  TEMP    WIND        PRES    WAVE
                       AIR SEA DIR/SP/G            HT/PER
                 (UTC) (F)     (DEG/KT/KT) (MB)    (FT/S)
PASCAGOULA       1300   38     360/ 14/ 20 1012.6
WAVELAND YACHT   1300   38 48  360/ 13/ 17 1014.0
GRAND ISLE       1300   41 53  350/ 13/ 17 1014.5
SOUTHWEST PASS   1300   45 48   10/ 13/ 16 1013.9
NEW CANAL        1300   39     350/ 16/ 20 1014.7
SHELL BEACH      1300   39 51  360/ 18/ 21 1013.7

OFFSHORE STATIONS

STATION/POSITION TIME  TEMP    WIND        PRES    WAVE
                       AIR SEA DIR/SP/G            HT/PER
                 (UTC) (F)     (DEG/KT/KT) (MB)    (FT/S)
64 S DAUPHIN ISL 1237   48 65  360/ 16/ 21 1012.7    6/ 7

$$




USA.gov is the U.S. government's official web portal to all federal, state and local government web resources and services.